Location: Spondin
(51.8528°N, 111.6118°W)
Time: 00:27:40
(UTC+00:00)

SR - Visible Passes

Search period start: 29 May 2022 00:00
Search period end: 08 June 2022 00:00
Orbit: 574 x 879 km, 66.7° (Epoch: 28 May)

Date Brightness Start Highest point End Pass type
(mag) Time Alt. Az. Time Alt. Az. Time Alt. Az.
31 May ? 09:49:17 10° SE 09:52:10 15° ESE 09:55:09 10° ENE visible
02 Jun ? 09:49:28 10° SSE 09:53:32 26° ESE 09:57:57 10° NE visible
03 Jun ? 09:01:20 10° SE 09:03:58 14° ESE 09:06:44 10° ENE visible
04 Jun ? 09:50:24 10° S 09:55:05 43° ESE 10:00:13 10° NE visible
05 Jun ? 09:01:25 10° SSE 09:05:21 25° ESE 09:09:38 10° ENE visible
06 Jun ? 08:13:25 10° SE 08:15:47 13° ESE 08:18:15 10° ENE visible
06 Jun ? 09:51:59 11° SSW 09:56:47 72° SE 10:02:17 10° NE visible
07 Jun ? 09:03:08 15° S 09:06:52 41° ESE 09:11:57 10° NE visible
